[[{"header":{"parameterUnit":"m.s-1","parameterCategory":1,"la1":30.2991,"la2":30.254,"lo1":-89.0895,"lo2":-89.0444,"dy":0.0017,"dx":0.0017,"nx":28,"ny":28,"refTime":"2025-05-28T03:00:00:Z","depth":0,"parameterNumber":2,"parameterNumberName":"U-component_of_WINDS"},"data":[0,0,0,0,0,0,0,0,0,0,0,0,0,0,0,0,0,0,0,0,0,0,0,0,0,0,0,0,0,0,0,0,0,0,0,0,0,0,0,0,0,0,0,0,0,0,0,0,0,0,0,0,0,0,0,0,0,0,0.5035,0.5036,0,0.5192,0.5194,0.5196,0.5278,0.5278,0.5279,0.5279,0.544,0.5444,0.5448,0,0,0,0,0,0,0,0,0,0,0,0,0,0.4804,0.4808,0.5035,0.5037,0.5038,0.5192,0.5194,0.5196,0.5278,0.5278,0.5279,0.5279,0.5439,0.5444,0.5449,0,0,0,0,0,0,0,0,0,0,0,0,0,0.4927,0.4809,0.5034,0.5098,0.5105,0.5191,0.5194,0.5197,0.5278,0.5278,0.5279,0.5279,0.5437,0.5443,0.5449,0.5484,0,0,0.5468,0.5471,0,0,0,0,0,0,0,0,0.492,0.4936,0.5087,0.5094,0.5102,0.5216,0.5172,0.5293,0.5278,0.5213,0.5279,0.5279,0.5365,0.5377,0.5407,0.5492,0.5499,0.5469,0.5473,0.5476,0.5477,0,0,0,0,0,0,0,0.4911,0.4929,0.5097,0.5089,0.5098,0.5118,0.5136,0.5195,0.5286,0.5218,0.5225,0.5242,0.537,0.54,0.5411,0.5501,0.5469,0.5474,0.5478,0.5481,0.5621,0.5621,0,0,0,0,0,0,0.4893,0.4922,0.5092,0.5102,0.501,0.5122,0.5142,0.5179,0.5286,0.5302,0.5242,0.5245,0.539,0.5404,0.5417,0.5464,0.5475,0.5481,0.5485,0.5621,0.5621,0.5621,0,0,0,0,0,0,0.4887,0.4907,0.5086,0.5013,0.5038,0.5126,0.5167,0.5182,0.5213,0.5303,0.532,0.5257,0.539,0.5408,0.5467,0.5471,0.5484,0.549,0.5621,0.5621,0.5621,0.5558,0,0,0,0,0,0,0.488,0.4905,0.4919,0.5013,0.5041,0.5132,0.5167,0.5185,0.5224,0.523,0.5322,0.5337,0.5392,0.5457,0.5473,0.548,0.5495,0.5621,0.5621,0.5621,0.5561,0.5556,0.5553,0,0,0,0,0,0.4872,0.4895,0.4919,0.494,0.5061,0.5133,0.5149,0.5211,0.5224,0.5239,0.5296,0.5334,0.5468,0.5462,0.5481,0.549,0.5621,0.5621,0.5621,0.5562,0.5557,0.5553,0,0,0,0,0,0,0.48,0.4909,0.4937,0.4991,0.5052,0.5146,0.5167,0.5204,0.5262,0.5266,0.5341,0.5361,0.5412,0.5457,0.5449,0.5528,0.5548,0.5552,0.5497,0.5493,0.5489,0.5477,0.55,0,0,0,0,0,0.479,0.4839,0.4932,0.4971,0.5,0.5078,0.5112,0.5154,0.522,0.5246,0.5309,0.5371,0.5427,0.5463,0.5519,0.5567,0.5588,0.5583,0.5579,0.5575,0.5577,0.5605,0.5603,0.5621,0.5621,0.5621,0,0,0.4771,0.4837,0.4863,0.4958,0.5011,0.5059,0.5099,0.515,0.5186,0.5254,0.5313,0.536,0.5435,0.5488,0.5515,0.5527,0.5577,0.5575,0.5571,0.5576,0.5605,0.5603,0.5601,0.5621,0.5621,0.5621,0,0,0.4761,0.4816,0.4854,0.4905,0.4983,0.5035,0.5044,0.5133,0.5167,0.5227,0.5278,0.5323,0.5418,0.5469,0.5507,0.5514,0.5551,0.5531,0.551,0.5537,0.5535,0.5534,0.5536,0.5536,0.5533,0.5533,0.5533,0,0.4727,0.4803,0.4869,0.4916,0.4956,0.5019,0.5058,0.5105,0.5197,0.5223,0.5236,0.5355,0.541,0.5476,0.5477,0.5506,0.5518,0.5521,0.553,0.553,0.553,0.5533,0.5533,0.553,0.553,0.553,0.5531,0,0.4758,0.4809,0.4831,0.4918,0.496,0.5003,0.5075,0.511,0.5148,0.5198,0.5258,0.5326,0.5397,0.5415,0.5454,0.5486,0.5491,0.5516,0.5537,0.5524,0.5528,0.553,0.5525,0.5526,0.5527,0.5528,0,0,0.4708,0.483,0.4836,0.4876,0.4967,0.5008,0.5053,0.5122,0.515,0.5211,0.5251,0.5329,0.5352,0.5395,0.544,0.5463,0.5463,0.5485,0.5488,0.5478,0.5502,0.5482,0.5483,0.5488,0.5489,0.5489,0.5496,0,0.471,0.4794,0.4854,0.4915,0.4963,0.5023,0.5062,0.5121,0.5169,0.5216,0.5269,0.5323,0.5349,0.5376,0.5401,0.5458,0.5469,0.5458,0.5525,0.5527,0.5504,0.5485,0.5465,0.5468,0.5498,0.5498,0.5498,0,0.4724,0.4783,0.4848,0.4932,0.4955,0.4989,0.5057,0.5101,0.5169,0.5202,0.5249,0.5295,0.5345,0.5361,0.5431,0.5422,0.5453,0.5484,0.5486,0.5495,0.5511,0.5493,0.5471,0.5471,0.5501,0.5501,0.5501,0,0.468,0.4776,0.4827,0.4859,0.4959,0.4981,0.5024,0.5092,0.5129,0.5188,0.5213,0.5277,0.5312,0.536,0.5421,0.5428,0.5484,0.5506,0.5512,0.551,0.5521,0.552,0.5503,0.5541,0.5541,0.5541,0.5541,0,0.4677,0.4714,0.4809,0.484,0.4883,0.4952,0.4993,0.504,0.51,0.5141,0.5197,0.5235,0.5313,0.536,0.5409,0.5458,0.5473,0.5501,0.5513,0.5496,0.5492,0.5517,0.5519,0.5541,0.5541,0.5541,0.5541,0,0.4635,0.47,0.476,0.4849,0.4872,0.49,0.4976,0.5008,0.5058,0.511,0.5126,0.5204,0.5262,0.5328,0.5408,0.544,0.5486,0.5504,0.5463,0.547,0.5472,0.5471,0.5471,0.5474,0.551,0.5509,0.5509,0,0.4628,0.4659,0.475,0.4782,0.4823,0.4873,0.4911,0.4979,0.5016,0.5095,0.5118,0.518,0.5234,0.5323,0.5387,0.5449,0.5469,0.5464,0.5478,0.5459,0.5468,0.5465,0.5468,0.546,0.546,0.5459,0.5459,0,0.4609,0.464,0.4693,0.4756,0.48,0.4854,0.4909,0.4932,0.5011,0.505,0.511,0.5151,0.5232,0.5293,0.5362,0.5405,0.5445,0.5453,0.5458,0.5441,0.5415,0.5428,0.5452,0.5453,0.5454,0.5454,0.5455,0.5455,0.4585,0.4614,0.4683,0.474,0.4789,0.4839,0.4874,0.4928,0.4979,0.505,0.5087,0.5146,0.5212,0.5309,0.5351,0.5398,0.5411,0.5418,0.5419,0.542,0.5415,0.5407,0.5411,0.5411,0.5411,0.5411,0.5411,0,0.4568,0.4615,0.4667,0.4743,0.4787,0.482,0.4883,0.4918,0.4969,0.5028,0.5079,0.5147,0.5206,0.5274,0.5337,0.5361,0.5381,0.5375,0.5374,0.5383,0.54,0.5389,0.5358,0.5358,0.5358,0.5358,0.5358,0.5358,0.4565,0.4616,0.4654,0.4729,0.4776,0.4834,0.4867,0.4914,0.4961,0.5034,0.5083,0.5127,0.5189,0.5257,0.5312,0.5331,0.5351,0.534,0.5364,0.5378,0.5382,0.5387,0.5377,0.5344,0.5344,0.5344,0.5344,0.5344]},{"header":{"parameterUnit":"m.s-1","parameterCategory":1,"la1":30.2991,"la2":30.254,"lo1":-89.0895,"lo2":-89.0444,"dy":0.0017,"dx":0.0017,"nx":28,"ny":28,"refTime":"2025-05-28T03:00:00:Z","depth":0,"parameterNumber":3,"parameterNumberName":"V-component_of_WINDS"},"data":[0,0,0,0,0,0,0,0,0,0,0,0,0,0,0,0,0,0,0,0,0,0,0,0,0,0,0,0,0,0,0,0,0,0,0,0,0,0,0,0,0,0,0,0,0,0,0,0,0,0,0,0,0,0,0,0,0,0,3.4877,3.4876,0,3.4837,3.4837,3.4837,3.4779,3.4778,3.4777,3.4776,3.4735,3.4735,3.4735,0,0,0,0,0,0,0,0,0,0,0,0,0,3.4902,3.4902,3.4877,3.4876,3.4876,3.4838,3.4837,3.4836,3.4779,3.4778,3.4777,3.4776,3.4735,3.4735,3.4735,0,0,0,0,0,0,0,0,0,0,0,0,0,3.488,3.4902,3.4877,3.4843,3.4839,3.4838,3.4837,3.4836,3.4779,3.4778,3.4776,3.4775,3.4735,3.4735,3.4735,3.4763,0,0,3.4734,3.4734,0,0,0,0,0,0,0,0,3.4881,3.4879,3.4848,3.4845,3.4841,3.4812,3.4831,3.4812,3.478,3.4802,3.4776,3.4774,3.4762,3.4759,3.4755,3.4761,3.476,3.4734,3.4734,3.4734,3.4734,0,0,0,0,0,0,0,3.4883,3.488,3.4861,3.4848,3.4844,3.4829,3.4824,3.4827,3.4791,3.48,3.4796,3.4792,3.4759,3.4755,3.4754,3.4759,3.4734,3.4734,3.4734,3.4733,3.4786,3.4788,0,0,0,0,0,0,3.4889,3.4882,3.4862,3.486,3.4858,3.483,3.4825,3.4823,3.4791,3.4784,3.4793,3.4789,3.4757,3.4754,3.4752,3.4783,3.4734,3.4733,3.4733,3.4785,3.4787,3.4788,0,0,0,0,0,0,3.489,3.4888,3.4864,3.487,3.4866,3.4831,3.4829,3.4823,3.4818,3.4785,3.4779,3.4796,3.4755,3.4752,3.4761,3.4781,3.4733,3.4733,3.4783,3.4785,3.4788,3.4846,0,0,0,0,0,0,3.4891,3.4889,3.4899,3.4871,3.4866,3.4874,3.4831,3.4823,3.4818,3.4813,3.4786,3.478,3.4754,3.4762,3.4761,3.478,3.4733,3.4781,3.4784,3.4787,3.4842,3.485,3.4857,0,0,0,0,0,3.4892,3.4917,3.49,3.4898,3.4878,3.4875,3.4872,3.4842,3.482,3.483,3.4809,3.4781,3.4779,3.4763,3.4761,3.4781,3.478,3.4783,3.4787,3.4839,3.4848,3.4857,0,0,0,0,0,0,3.4949,3.4913,3.4894,3.491,3.4896,3.4866,3.4878,3.4853,3.4845,3.484,3.4802,3.4797,3.481,3.4796,3.4779,3.4807,3.4775,3.4778,3.4815,3.4824,3.4831,3.4834,3.4733,0,0,0,0,0,3.4964,3.4965,3.4933,3.495,3.4944,3.4913,3.491,3.4888,3.4872,3.4866,3.4845,3.483,3.4826,3.4824,3.4819,3.484,3.4833,3.4852,3.486,3.4866,3.4869,3.4879,3.4887,3.48,3.48,3.48,0,0,3.4994,3.4974,3.4977,3.4961,3.4948,3.495,3.4908,3.4911,3.4912,3.4866,3.4873,3.4857,3.4838,3.4853,3.4859,3.4842,3.4892,3.487,3.4876,3.4875,3.4884,3.4892,3.4899,3.4802,3.4802,3.4801,0,0,3.5049,3.5034,3.5047,3.5035,3.5015,3.4994,3.4997,3.497,3.4958,3.4965,3.493,3.493,3.4924,3.4912,3.4905,3.4957,3.493,3.4956,3.4994,3.5004,3.5011,3.5017,3.5035,3.5042,3.4959,3.496,3.496,0,3.5089,3.509,3.5057,3.5063,3.5057,3.5016,3.5029,3.5018,3.4998,3.4995,3.4976,3.4968,3.4952,3.4964,3.4976,3.4972,3.4975,3.4959,3.5013,3.5019,3.5024,3.504,3.5047,3.4963,3.4962,3.4962,3.4962,0,3.5139,3.5141,3.5154,3.5135,3.5131,3.514,3.5109,3.5108,3.5087,3.5067,3.5074,3.5054,3.5044,3.5045,3.5024,3.5054,3.5044,3.502,3.4987,3.5036,3.5051,3.5057,3.4967,3.4966,3.4965,3.4964,0,0,3.5229,3.5193,3.5198,3.5189,3.5165,3.5165,3.5173,3.5163,3.5163,3.5151,3.5156,3.5152,3.513,3.5122,3.5099,3.5108,3.515,3.5082,3.5081,3.5096,3.5181,3.5199,3.5207,3.5132,3.5133,3.5134,3.5183,0,3.5279,3.529,3.5261,3.5279,3.528,3.5241,3.5247,3.5233,3.5215,3.5213,3.5193,3.5191,3.5162,3.5157,3.5164,3.5143,3.5166,3.5139,3.5136,3.5136,3.5142,3.5215,3.5234,3.5281,3.5188,3.5189,3.519,0,3.5339,3.533,3.5349,3.5323,3.5322,3.5329,3.5318,3.5316,3.5299,3.5285,3.5277,3.5251,3.5256,3.5225,3.5232,3.5214,3.5211,3.52,3.5201,3.52,3.5166,3.5215,3.5295,3.5302,3.5199,3.5198,3.5198,0,3.5403,3.5395,3.5405,3.5399,3.537,3.5375,3.5363,3.5344,3.534,3.5331,3.5328,3.5319,3.5314,3.5307,3.5278,3.5259,3.5288,3.5255,3.5277,3.5278,3.5285,3.5285,3.5365,3.5283,3.5283,3.5283,3.5283,0,3.5462,3.5475,3.5433,3.5439,3.5452,3.5419,3.5433,3.5417,3.5401,3.5403,3.5368,3.5371,3.5333,3.5332,3.531,3.5318,3.5316,3.5305,3.5299,3.5308,3.531,3.5306,3.5302,3.5285,3.5285,3.5284,3.5284,0,3.5535,3.5508,3.5516,3.5488,3.5481,3.5492,3.5467,3.5472,3.5452,3.5455,3.5454,3.5423,3.5419,3.539,3.538,3.5365,3.5382,3.537,3.5388,3.5384,3.5407,3.5406,3.5488,3.5497,3.541,3.5411,3.5412,0,3.5574,3.5583,3.5556,3.5555,3.5545,3.5544,3.554,3.5507,3.5504,3.5486,3.5493,3.5486,3.548,3.5476,3.5452,3.5444,3.5431,3.546,3.543,3.5438,3.5431,3.5431,3.5432,3.5467,3.5468,3.5469,3.547,0,3.5647,3.5633,3.5629,3.562,3.5616,3.5607,3.5597,3.5598,3.5562,3.556,3.5556,3.5551,3.5541,3.5535,3.5523,3.551,3.5484,3.548,3.5484,3.5494,3.5504,3.5499,3.5406,3.5478,3.5477,3.5477,3.5476,3.5476,3.5704,3.571,3.5692,3.5689,3.5677,3.5668,3.5671,3.5651,3.5648,3.5637,3.5618,3.5617,3.56,3.5581,3.557,3.5569,3.5553,3.556,3.5562,3.5564,3.5569,3.5504,3.5567,3.5566,3.5566,3.5566,3.5566,0,3.5775,3.5762,3.5759,3.5745,3.5742,3.5718,3.5705,3.5704,3.5703,3.569,3.5684,3.568,3.5674,3.565,3.5641,3.5645,3.5633,3.5644,3.5643,3.564,3.5583,3.558,3.5654,3.5654,3.5654,3.5654,3.5654,3.5654,3.5812,3.5821,3.5805,3.5808,3.5794,3.5794,3.5788,3.5779,3.5768,3.5765,3.576,3.5745,3.5727,3.5717,3.571,3.5703,3.5702,3.5717,3.5706,3.5653,3.5644,3.5636,3.5633,3.5717,3.5717,3.5763,3.5764,3.5764]}]]